Grand Junction, CO

8:46 AM MST on December 13, 2019 (GMT -0700)
Walker

Weather History for KGJT - March, 2019

Change the Weather History Date:

Sunday, March 10, 2019

  Actual Average Record
Temperature  
Mean Temperature 42 °F 43 °F  
Max Temperature 50 °F 55 °F 75 °F (1972)
Min Temperature 34 °F 30 °F 7 °F (1948)
Degree Days  
Heating Degree Days 23 22  
Month to date heating degree days 220 237  
Since 1 July heating degree days 4675 4616  
Cooling Degree Days 0 0  
Month to date cooling degree days 0 0  
Year to date cooling degree days 0 0  
Moisture  
Dew Point 31 °F    
Average Humidity 64    
Maximum Humidity 82    
Minimum Humidity 46    
Precipitation  
Precipitation 0.00 in 0.02 in 0.32 in (1927)
Month to date precipitation 0.96 0.25  
Year to date precipitation 2.40 1.37  
Snow  
Snow 0.00 in 0.10 in 2.00 in (2006)
Month to date snowfall 0.0 0.8  
Since 1 July snowfall 17.4 16.3  
Snow Depth 0.00 in    
Sea Level Pressure  
Sea Level Pressure 29.92 in    
Wind  
Wind Speed 6 mph (East)    
Max Wind Speed 15 mph    
Max Gust Speed 19 mph    
Visibility 10 miles    
Events      
T = Trace of Precipitation, MM = Missing Value Source: NWS Daily Summary

Daily Weather History Graph

Daily Weather History Graph

Search for Another Location

Airport or City:

Astronomy

Mar. 10, 2019 Rise Set
Actual Time 7:33 AM MDT 7:15 PM MDT
Civil Twilight 7:06 AM MDT 7:42 PM MDT
Nautical Twilight 6:35 AM MDT 8:13 PM MDT
Astronomical Twilight 6:04 AM MDT 8:44 PM MDT
Moon 9:50 AM MDT (3/10) 11:17 PM MDT (3/10)
Length of Visible Light 12h 35m
Length of Day
11h 42m
Waxing Crescent, 15% of the Moon is Illuminated
Mar 10
Waxing Crescent
Mar 14
First Quarter
Mar 20
Full
Mar 27
Last Quarter
Apr 5
New

Hourly Weather History & Observations

Time (MDT) Temp. Windchill Dew Point Humidity Pressure Visibility Wind Dir Wind Speed Gust Speed Precip Events Conditions
12:53 AM 35.1 °F 27.4 °F 30.0 °F 82% 29.86 in 10.0 mi East 10.4 mph - N/A   Mostly Cloudy
1:53 AM 34.0 °F 26.0 °F 28.9 °F 82% 29.86 in 10.0 mi East 10.4 mph - N/A   Clear
3:53 AM 35.1 °F 27.4 °F 28.9 °F 78% 29.84 in 10.0 mi East 10.4 mph - N/A   Mostly Cloudy
4:53 AM 36.0 °F 28.0 °F 28.9 °F 76% 29.85 in 10.0 mi East 11.5 mph - N/A   Overcast
5:53 AM 36.0 °F 28.5 °F 28.9 °F 76% 29.86 in 10.0 mi East 10.4 mph - N/A   Overcast
6:53 AM 36.0 °F 28.0 °F 28.9 °F 76% 29.88 in 10.0 mi ESE 11.5 mph - N/A   Overcast
7:53 AM 37.0 °F 28.5 °F 28.9 °F 73% 29.90 in 10.0 mi ESE 13.8 mph - N/A   Overcast
8:53 AM 37.9 °F - 28.0 °F 68% 29.92 in 10.0 mi Calm Calm - N/A   Overcast
9:53 AM 39.0 °F 35.7 °F 28.0 °F 65% 29.94 in 10.0 mi WSW 4.6 mph - N/A   Overcast
10:53 AM 39.9 °F 35.8 °F 30.9 °F 70% 29.96 in 10.0 mi NE 5.8 mph - N/A   Overcast
11:53 AM 42.1 °F - 30.0 °F 62% 29.95 in 10.0 mi Calm Calm - N/A   Overcast
12:53 PM 45.0 °F 41.8 °F 30.9 °F 58% 29.95 in 10.0 mi WNW 5.8 mph - N/A   Clear
1:53 PM 48.0 °F - 30.0 °F 50% 29.91 in 10.0 mi Calm Calm - N/A   Clear
2:53 PM 48.9 °F - 32.0 °F 52% 29.90 in 10.0 mi NNW 4.6 mph - N/A   Clear
3:53 PM 50.0 °F - 30.0 °F 46% 29.90 in 10.0 mi NW 6.9 mph - N/A   Clear
4:53 PM 48.9 °F - 32.0 °F 52% 29.90 in 10.0 mi WNW 9.2 mph - N/A   Clear
5:53 PM 48.0 °F - 30.9 °F 52% 29.91 in 10.0 mi WNW 9.2 mph - N/A   Clear
6:53 PM 46.0 °F 43.9 °F 33.1 °F 61% 29.93 in 10.0 mi WNW 4.6 mph - N/A   Clear
7:53 PM 44.1 °F - 32.0 °F 63% 29.96 in 10.0 mi Calm Calm - N/A   Clear
8:53 PM 41.0 °F - 35.1 °F 79% 29.97 in 10.0 mi Calm Calm - N/A   Clear
9:53 PM 39.0 °F - 34.0 °F 82% 29.98 in 10.0 mi Calm Calm - N/A   Clear
10:53 PM 41.0 °F 36.4 °F 30.9 °F 67% 29.98 in 10.0 mi SSE 6.9 mph - N/A   Partly Cloudy
11:53 PM 39.9 °F 34.5 °F 32.0 °F 73% 29.99 in 10.0 mi SE 8.1 mph - N/A   Clear
12:53 AM 39.0 °F 35.7 °F 32.0 °F 76% 29.98 in 10.0 mi SE 4.6 mph - N/A   Clear